Location: Baia Mare
(47.6567°N, 23.5850°E)
Time: 23:01:23
(UTC+03:00)

ISS - Pass Details

Date: 19 July 2018
Orbit: 402 x 408 km, 51.6° (Epoch: 17 July)

Event Time Altitude Azimuth Distance (km) Brightness Sun altitude
Rises 04:08:03 0° 293° (WNW) 2,332 -0.1 -13.0°
Reaches altitude 10° 04:10:08 10° 294° (WNW) 1,470 -1.1 -12.8°
Maximum altitude 04:13:26 84° 23° (NNE) 414 -3.8 -12.5°
Drops below altitude 10° 04:16:44 10° 112° (ESE) 1,466 -0.8 -12.1°
Sets 04:18:49 0° 113° (ESE) 2,325 0.2 -11.9°
